Wind_Speed
42 40 39 42 44 47 49 48 47 47 46 46 45 46 46 47 48 46 47 49 51 52 53 52 48 48 49 51 53 54 55 56 57 53 56 55 57 58 56 52 51 49 51
41 41 42 44 46 48 49 48 47 46 46 47 48 50 52 50 50 51 51 54 52 52 53 55 57 56 53 53 56 57 59 60 60 57 56 56 56 57 58 59 55 56 43
43 43 44 44 43 46 51 53 55 52 51 51 52 54 50 51 51 51 53 53 55 55 56 58 60 61 62 61 61 62 62 62 64 64 60 60 59 59 59 59 58 54 51
43 44 43 43 45 47 47 51 52 54 55 54 52 57 52 56 57 57 52 53 55 57 59 62 63 64 63 64 63 63 64 64 64 66 65 64 64 64 65 64 62 62 56
40 41 42 42 45 46 46 45 47 47 49 54 56 57 57 57 57 58 57 58 59 60 61 62 64 66 66 66 64 63 65 66 66 67 68 67 67 67 69 69 68 68 64
42 45 46 47 47 45 45 48 49 51 54 57 59 58 55 56 58 59 60 61 62 62 64 64 64 65 65 65 66 68 72 75 76 78 76 75 73 74 73 72 72 72 69
50 52 51 51 50 49 52 53 53 53 56 57 60 60 60 60 60 61 63 65 66 66 67 68 71 74 77 77 77 78 79 82 83 85 85 84 84 84 85 82 78 74 73
48 47 50 53 49 53 57 57 54 56 57 57 57 58 60 62 64 65 65 67 70 73 77 80 82 85 89 91 92 93 95 98 99 99 99 96 95 93 93 93 91 87 80
45 48 50 52 54 57 58 59 59 56 56 57 58 60 63 64 65 67 70 74 78 82 85 88 92 94 97 101 102 104 106 109 111 113 115 113 109 103 101 101 97 99 89
50 53 51 54 54 55 60 59 58 56 57 59 62 65 66 69 72 76 80 83 86 90 94 98 102 105 108 112 115 117 117 118 120 120 114 113 116 120 117 115 107 105 101
45 50 52 52 56 61 60 60 58 59 61 63 66 69 71 75 79 83 87 92 96 98 101 104 106 106 102 96 91 92 96 98 95 90 87 85 83 83 88 97 105 110 109
52 53 53 53 56 59 58 59 61 62 65 67 70 74 78 81 86 90 93 96 99 100 96 91 87 86 89 91 91 90 87 80 73 68 63 59 58 59 62 67 75 84 99
53 54 57 62 60 58 60 61 64 66 68 71 75 79 83 87 90 92 93 89 83 82 84 86 86 86 86 85 81 77 69 63 60 56 54 49 46 46 46 48 53 61 76
51 52 54 56 58 61 62 64 66 69 73 76 80 83 87 88 86 80 78 79 80 81 83 82 79 77 75 74 68 60 57 58 57 51 44 38 36 35 32 31 34 44 54
51 52 55 58 61 62 64 68 71 74 77 81 84 83 78 75 77 78 77 80 84 83 76 72 69 70 67 57 53 53 51 49 47 46 41 37 35 33 32 28 29 30 30
51 55 58 61 63 66 69 72 75 78 79 76 73 75 76 75 75 79 81 83 78 72 69 67 65 58 51 48 44 43 43 42 40 39 38 35 34 33 32 31 31 31 34
55 58 61 64 67 68 71 73 72 69 72 72 72 74 73 74 77 78 80 75 70 67 65 57 49 46 43 42 41 40 39 39 36 35 33 32 33 33 32 32 31 32 37
58 61 64 66 67 66 62 63 66 67 70 72 71 71 72 74 75 76 72 66 62 58 50 44 42 40 40 41 40 38 38 37 37 34 32 31 30 30 31 33 34 32 34
60 63 63 60 58 60 61 63 64 66 67 68 69 70 72 73 74 67 61 57 52 45 42 40 41 40 41 42 42 41 39 38 36 35 33 30 29 29 29 30 32 33 34
57 54 55 56 58 62 62 64 64 65 65 65 66 68 68 68 60 57 54 49 44 41 39 40 40 40 41 41 42 43 42 40 38 37 35 33 31 28 27 29 31 32 35
51 52 56 59 61 61 62 62 63 63 63 64 65 66 64 55 52 49 44 38 37 38 38 39 40 41 42 44 46 46 43 40 38 38 36 35 34 32 31 28 29 32 34
54 56 58 59 59 59 60 61 61 61 62 63 65 62 53 48 46 43 38 34 34 35 36 37 39 40 42 41 39 39 39 38 37 36 36 36 36 35 34 33 32 31 33
54 55 56 57 57 57 58 58 58 59 60 64 61 53 47 44 42 39 36 34 34 35 35 35 35 37 38 39 39 39 40 39 38 36 36 36 37 38 38 38 37 36 35
54 54 55 55 55 56 55 55 56 57 61 61 52 46 43 40 38 35 33 32 31 32 34 35 35 35 37 38 40 42 42 41 40 39 38 40 43 46 47 45 43 41 40
53 53 53 53 54 54 53 53 54 57 59 53 45 42 39 37 35 33 31 33 34 34 34 35 36 39 41 42 43 45 46 45 42 42 44 48 53 54 53 52 52 49 47
52 52 52 52 52 52 51 51 52 56 55 47 42 39 36 36 36 34 34 35 35 36 36 38 40 43 44 46 47 48 50 49 48 48 52 56 55 52 49 49 51 53 54
Wind_Direction
285 282 281 280 281 282 283 283 282 278 277 277 279 280 282 286 287 287 288 288 285 284 282 282 282 283 284 283 282 282 283 282 281 279 281 279 275 273 271 271 272 277 272
280 278 278 275 274 278 281 279 276 277 278 281 284 287 288 285 284 284 289 287 286 287 285 284 281 277 277 279 280 279 281 282 283 281 279 278 278 276 272 269 268 265 272
276 277 278 278 278 276 274 277 277 280 282 283 283 287 287 289 289 288 285 286 287 286 286 282 284 285 285 283 282 283 281 280 281 282 283 280 277 275 275 274 270 270 268
280 281 281 278 275 273 273 276 280 281 281 285 293 287 285 291 289 290 287 285 284 284 283 284 284 286 285 283 281 280 279 279 279 278 277 277 276 273 273 272 271 273 271
283 284 282 280 280 277 280 281 284 286 287 287 289 291 289 288 289 289 289 288 287 286 285 284 284 284 285 285 284 282 280 277 277 276 274 273 274 272 272 270 270 269 269
283 285 284 284 283 282 285 285 288 290 291 293 295 295 293 292 290 290 290 289 288 287 287 286 286 284 283 282 282 281 282 281 279 277 274 272 271 272 270 268 269 269 267
280 280 283 284 283 283 284 285 285 289 293 291 290 292 293 293 292 291 291 292 292 291 290 289 288 287 286 283 281 280 280 279 278 278 277 276 273 272 269 268 268 268 269
278 278 280 281 280 284 283 284 282 292 292 291 290 290 290 290 291 291 291 293 293 292 292 291 290 290 289 288 288 286 285 283 281 278 275 274 274 271 269 268 266 265 264
279 281 284 284 283 282 281 282 297 293 292 291 291 291 291 291 290 291 291 291 292 292 292 291 290 289 290 290 289 287 284 283 282 280 279 277 273 268 266 264 262 261 261
275 277 281 283 281 276 290 296 294 293 291 291 291 290 289 290 293 293 292 292 291 291 293 295 296 295 294 293 291 290 288 286 284 282 283 281 277 271 267 264 259 258 257
268 277 286 285 279 285 292 292 290 289 290 290 289 290 290 291 293 295 296 295 295 296 298 298 298 299 299 298 296 294 294 294 293 289 285 281 276 272 267 262 260 256 253
280 281 284 284 281 288 290 288 288 289 289 290 291 293 295 297 297 297 298 299 300 301 301 301 300 299 300 300 300 300 300 297 297 295 292 287 280 275 270 262 258 252 248
278 280 280 281 286 287 286 288 289 289 291 293 295 296 296 297 299 300 302 303 302 303 303 303 303 302 302 302 302 302 300 298 299 295 292 289 285 281 275 268 261 253 246
280 280 281 283 284 286 288 289 291 294 295 296 297 298 299 301 302 302 302 303 304 304 304 303 303 303 303 304 305 302 301 301 301 298 294 289 284 281 282 281 271 261 251
281 283 283 285 287 289 292 294 295 296 297 299 300 301 302 302 303 303 303 304 305 304 303 303 303 305 307 304 302 300 299 301 302 300 295 291 285 280 272 269 264 263 260
285 287 288 289 291 293 295 296 298 300 300 301 302 304 304 305 305 306 306 307 305 303 303 304 304 304 302 301 300 299 300 303 303 301 295 287 281 276 270 266 267 253 251
287 289 290 291 292 295 299 300 301 301 303 305 305 305 305 305 307 307 309 307 304 304 303 304 302 302 302 304 306 305 305 305 304 303 298 288 281 277 270 263 264 255 245
289 289 291 295 298 300 301 302 304 305 306 307 306 306 307 308 308 310 309 306 305 305 304 302 302 303 303 305 306 308 308 308 308 306 303 298 288 276 271 267 263 259 248
291 294 297 298 300 302 302 302 304 305 306 307 307 308 309 310 311 310 309 308 305 302 300 301 303 302 304 307 308 309 307 308 307 306 303 299 295 286 275 266 263 258 253
296 297 299 300 300 301 302 304 305 306 307 308 308 310 312 313 312 312 313 312 307 303 301 302 302 303 304 307 309 309 308 306 305 304 304 301 297 291 283 272 262 259 255
298 299 299 299 301 303 305 306 307 308 309 310 311 313 313 311 312 315 315 313 308 304 302 303 304 304 304 306 308 307 306 305 303 301 299 298 296 293 288 281 271 261 253
298 298 300 302 304 306 308 308 309 310 311 312 314 314 312 312 314 315 316 314 311 309 308 307 307 307 308 309 310 311 309 308 306 303 300 297 294 291 288 282 276 268 261
299 301 303 305 307 308 308 309 310 312 313 315 315 312 311 312 313 314 314 315 313 313 313 314 315 315 315 316 316 314 311 307 304 302 300 300 299 294 288 282 276 270 264
303 305 306 306 307 308 309 311 312 313 317 317 313 310 309 309 311 312 312 314 316 316 317 318 320 321 320 320 321 321 317 311 306 302 298 297 296 294 288 281 274 269 264
305 306 307 307 309 310 311 311 313 315 318 316 312 310 308 308 310 309 309 312 314 314 316 318 320 321 322 321 320 320 320 315 308 302 300 300 299 294 286 277 271 267 262
307 308 308 309 310 311 310 311 314 318 319 316 313 311 307 308 308 306 307 311 312 313 314 316 318 319 319 320 320 320 320 318 312 309 308 309 305 298 289 279 269 262 259
Height
5678 5676 5673 5671 5669 5667 5664 5661 5659 5657 5654 5651 5649 5647 5645 5643 5641 5638 5635 5632 5629 5626 5622 5620 5616 5614 5611 5608 5605 5601 5597 5593 5592 5600 5595 5596 5596 5594 5593 5591 5590 5588 5587
5665 5663 5662 5660 5658 5655 5653 5650 5648 5645 5643 5641 5638 5636 5633 5631 5629 5626 5622 5619 5616 5613 5609 5606 5602 5599 5596 5593 5592 5589 5586 5582 5580 5582 5582 5582 5580 5578 5577 5576 5576 5574 5573
5654 5653 5650 5648 5646 5644 5642 5640 5637 5634 5632 5629 5626 5623 5620 5617 5615 5612 5609 5605 5602 5598 5595 5592 5588 5585 5582 5579 5575 5573 5570 5567 5565 5565 5567 5566 5565 5563 5562 5560 5559 5559 5558
5642 5640 5638 5636 5634 5632 5630 5628 5625 5622 5619 5617 5613 5610 5607 5605 5602 5598 5594 5591 5587 5583 5579 5575 5571 5568 5565 5562 5560 5557 5554 5552 5549 5547 5549 5548 5547 5546 5543 5541 5544 5541 5544
5631 5629 5627 5625 5622 5620 5618 5616 5613 5610 5607 5604 5601 5597 5594 5590 5587 5583 5579 5575 5571 5568 5563 5559 5555 5551 5547 5544 5541 5539 5536 5533 5530 5528 5529 5529 5529 5527 5523 5523 5523 5523 5529
5620 5618 5616 5613 5610 5608 5606 5604 5600 5597 5594 5590 5585 5581 5577 5574 5571 5567 5563 5559 5554 5550 5547 5543 5538 5534 5531 5528 5525 5522 5517 5511 5509 5505 5507 5507 5509 5503 5502 5502 5501 5502 5508
5610 5607 5604 5602 5599 5596 5593 5590 5587 5584 5579 5575 5572 5567 5563 5559 5555 5551 5546 5542 5537 5532 5528 5524 5520 5514 5510 5508 5506 5502 5497 5488 5483 5478 5479 5484 5483 5482 5478 5477 5477 5479 5484
5596 5594 5592 5590 5587 5584 5580 5577 5574 5570 5566 5562 5558 5553 5548 5544 5540 5535 5530 5524 5519 5513 5507 5502 5497 5491 5483 5479 5476 5474 5469 5462 5457 5452 5446 5452 5450 5452 5448 5447 5450 5452 5461
5584 5581 5579 5578 5575 5571 5567 5563 5560 5556 5551 5547 5542 5537 5532 5527 5523 5518 5513 5507 5500 5492 5485 5477 5471 5464 5456 5448 5444 5440 5437 5428 5420 5412 5408 5408 5412 5415 5413 5408 5420 5415 5430
5571 5568 5567 5564 5561 5557 5553 5550 5546 5541 5537 5532 5527 5522 5516 5510 5504 5499 5492 5486 5480 5472 5460 5449 5439 5432 5423 5415 5406 5399 5396 5389 5380 5375 5370 5363 5360 5363 5367 5366 5381 5380 5393
5558 5556 5553 5550 5547 5544 5540 5536 5531 5527 5522 5517 5511 5505 5498 5492 5484 5476 5468 5460 5452 5443 5432 5422 5412 5401 5391 5382 5372 5363 5353 5347 5340 5331 5325 5320 5318 5318 5319 5321 5329 5339 5352
5545 5543 5539 5537 5534 5530 5526 5522 5517 5512 5506 5500 5493 5485 5477 5470 5461 5453 5443 5433 5421 5413 5404 5394 5384 5375 5365 5355 5347 5337 5326 5316 5308 5302 5297 5292 5289 5288 5288 5287 5291 5297 5306
5534 5530 5527 5524 5520 5516 5512 5506 5501 5495 5488 5482 5475 5467 5457 5449 5439 5429 5418 5409 5397 5388 5378 5369 5360 5351 5342 5330 5320 5312 5304 5297 5291 5284 5279 5274 5270 5268 5267 5267 5268 5271 5277
5520 5517 5514 5511 5506 5501 5496 5490 5484 5477 5470 5463 5455 5447 5436 5426 5417 5408 5399 5390 5379 5367 5357 5348 5338 5329 5319 5309 5300 5293 5287 5281 5274 5269 5265 5261 5258 5256 5255 5253 5254 5255 5259
5508 5505 5501 5497 5491 5485 5479 5472 5465 5458 5450 5441 5433 5425 5415 5406 5397 5387 5378 5369 5359 5347 5337 5328 5320 5312 5303 5295 5287 5280 5275 5270 5263 5255 5252 5249 5248 5247 5246 5245 5245 5246 5249
5495 5491 5487 5481 5474 5467 5460 5454 5447 5439 5431 5421 5411 5403 5395 5385 5376 5366 5355 5345 5335 5326 5318 5310 5302 5295 5288 5283 5278 5271 5264 5259 5254 5247 5242 5239 5238 5237 5238 5237 5237 5238 5241
5482 5477 5471 5465 5458 5451 5443 5435 5427 5419 5410 5402 5392 5384 5375 5366 5356 5346 5334 5323 5314 5307 5299 5292 5287 5281 5276 5271 5266 5260 5255 5249 5244 5240 5234 5230 5229 5227 5228 5229 5229 5231 5232
5467 5462 5456 5449 5442 5435 5427 5419 5410 5401 5392 5383 5375 5366 5357 5347 5337 5326 5315 5304 5296 5288 5283 5279 5274 5270 5265 5260 5255 5251 5245 5240 5235 5231 5227 5222 5220 5219 5218 5219 5220 5222 5224
5452 5446 5440 5432 5425 5418 5411 5403 5395 5386 5378 5368 5358 5349 5339 5329 5318 5307 5298 5290 5283 5277 5273 5268 5264 5260 5255 5250 5245 5240 5236 5231 5227 5223 5220 5216 5213 5210 5209 5209 5210 5212 5214
5437 5430 5424 5417 5410 5403 5395 5386 5378 5369 5361 5352 5343 5334 5323 5311 5301 5292 5283 5275 5270 5266 5262 5259 5255 5251 5246 5241 5235 5230 5226 5222 5217 5214 5211 5208 5205 5203 5201 5200 5200 5202 5204
5422 5416 5410 5403 5395 5387 5379 5370 5362 5353 5344 5335 5326 5316 5307 5298 5290 5281 5273 5267 5262 5258 5254 5250 5246 5241 5236 5231 5225 5219 5215 5211 5207 5204 5201 5199 5197 5194 5192 5191 5191 5191 5193
5408 5402 5395 5387 5379 5371 5363 5355 5346 5337 5329 5320 5310 5300 5292 5285 5278 5271 5264 5259 5254 5250 5246 5241 5236 5232 5227 5221 5216 5210 5206 5201 5198 5194 5191 5188 5186 5185 5183 5182 5181 5181 5182
5393 5386 5379 5372 5364 5357 5349 5341 5333 5324 5315 5305 5295 5286 5280 5274 5268 5262 5256 5251 5246 5241 5237 5233 5228 5222 5217 5212 5206 5201 5196 5192 5188 5184 5181 5178 5175 5173 5171 5170 5170 5169 5170
5378 5371 5364 5357 5350 5343 5335 5327 5319 5310 5301 5291 5283 5276 5270 5264 5259 5254 5249 5244 5239 5234 5229 5225 5220 5214 5209 5203 5197 5191 5186 5181 5177 5173 5170 5167 5163 5160 5158 5155 5155 5155 5156
5364 5357 5350 5343 5336 5328 5320 5313 5306 5298 5289 5279 5271 5265 5260 5255 5250 5246 5241 5237 5231 5226 5221 5217 5211 5206 5200 5194 5188 5182 5175 5169 5165 5161 5156 5152 5147 5142 5138 5136 5136 5137 5139
5351 5344 5337 5329 5322 5315 5308 5301 5293 5285 5276 5268 5261 5256 5251 5246 5242 5237 5233 5228 5223 5218 5213 5207 5202 5196 5189 5183 5176 5170 5163 5157 5150 5145 5140 5133 5126 5119 5115 5113 5112 5114 5117